Time,TemperatureF,DewpointF,PressureIn,WindDirection,WindDirectionDegrees,WindSpeedMPH,WindSpeedGustMPH,Humidity,HourlyPrecipIn,Conditions,Clouds,dailyrainin,SoftwareType,DateUTC
2013-01-15 00:04:00,35.0,28.0,30.29,NNE,22,0.0,4.0,75,0.00,,,0.03,,2013-01-15 05:04:00,
2013-01-15 00:12:00,35.0,28.0,30.29,NNE,22,0.0,4.0,75,0.00,,,0.03,,2013-01-15 05:12:00,
2013-01-15 00:22:00,35.0,27.0,30.30,NNW,334,1.0,4.0,73,0.00,,,0.03,,2013-01-15 05:22:00,
2013-01-15 00:33:00,35.0,27.0,30.30,North,5,1.0,3.0,73,0.00,,,0.03,,2013-01-15 05:33:00,
2013-01-15 00:42:00,35.0,27.0,30.30,North,5,1.0,3.0,73,0.00,,,0.03,,2013-01-15 05:42:00,
2013-01-15 00:52:00,35.0,27.0,30.32,North,360,1.0,3.0,73,0.00,,,0.03,,2013-01-15 05:52:00,
2013-01-15 01:03:00,35.0,27.0,30.28,ENE,58,0.0,3.0,73,0.00,,,0.03,,2013-01-15 06:03:00,
2013-01-15 01:12:00,35.0,27.0,30.28,ENE,58,0.0,3.0,73,0.00,,,0.03,,2013-01-15 06:12:00,
2013-01-15 01:22:00,35.0,28.0,30.29,ENE,58,0.0,1.0,74,0.00,,,0.03,,2013-01-15 06:22:00,
2013-01-15 01:33:00,34.0,27.0,30.31,NE,47,0.0,3.0,75,0.00,,,0.03,,2013-01-15 06:33:00,
2013-01-15 01:43:00,34.0,27.0,30.31,NE,47,0.0,3.0,75,0.00,,,0.03,,2013-01-15 06:43:00,
2013-01-15 01:52:00,34.0,26.0,30.32,East,88,1.0,4.0,73,0.00,,,0.02,,2013-01-15 06:52:00,
2013-01-15 02:02:00,34.0,26.0,30.32,NNE,13,1.0,5.0,71,0.00,,,0.02,,2013-01-15 07:02:00,
2013-01-15 02:12:00,34.0,26.0,30.32,NNE,13,1.0,5.0,71,0.00,,,0.02,,2013-01-15 07:12:00,
2013-01-15 02:22:00,34.0,27.0,30.32,NE,46,0.0,4.0,75,0.00,,,0.02,,2013-01-15 07:22:00,
2013-01-15 02:33:00,33.0,28.0,30.28,ESE,103,0.0,2.0,80,0.00,,,0.02,,2013-01-15 07:33:00,
2013-01-15 02:42:00,33.0,28.0,30.28,ESE,103,0.0,2.0,80,0.00,,,0.02,,2013-01-15 07:42:00,
2013-01-15 02:52:00,32.0,28.0,30.32,NE,49,0.0,2.0,86,0.00,,,0.02,,2013-01-15 07:52:00,
2013-01-15 03:02:00,32.0,28.0,30.30,North,360,0.0,3.0,86,0.00,,,0.02,,2013-01-15 08:02:00,
2013-01-15 03:12:00,32.0,28.0,30.30,North,360,0.0,3.0,86,0.00,,,0.02,,2013-01-15 08:12:00,
2013-01-15 03:22:00,32.0,29.0,30.30,North,5,0.0,1.0,88,0.00,,,0.02,,2013-01-15 08:22:00,
2013-01-15 03:33:00,32.0,29.0,30.29,North,5,0.0,2.0,89,0.00,,,0.02,,2013-01-15 08:33:00,
2013-01-15 03:43:00,32.0,29.0,30.29,North,5,0.0,2.0,89,0.00,,,0.02,,2013-01-15 08:43:00,
2013-01-15 03:52:00,32.0,29.0,30.28,West,271,0.0,1.0,90,0.00,,,0.01,,2013-01-15 08:52:00,
2013-01-15 04:02:00,32.0,29.0,30.29,NW,317,0.0,2.0,90,0.00,,,0.01,,2013-01-15 09:02:00,
2013-01-15 04:12:00,32.0,29.0,30.29,NW,317,0.0,2.0,90,0.00,,,0.01,,2013-01-15 09:12:00,
2013-01-15 04:22:00,32.0,30.0,30.28,NNW,327,0.0,1.0,91,0.00,,,0.01,,2013-01-15 09:22:00,
2013-01-15 04:33:00,32.0,29.0,30.27,WSW,252,0.0,2.0,89,0.00,,,0.01,,2013-01-15 09:33:00,
2013-01-15 04:42:00,32.0,29.0,30.27,WSW,252,0.0,2.0,89,0.00,,,0.01,,2013-01-15 09:42:00,
2013-01-15 04:52:00,32.0,29.0,30.26,WSW,252,0.0,0.0,87,0.00,,,0.01,,2013-01-15 09:52:00,
2013-01-15 05:02:00,32.0,29.0,30.26,WSW,252,0.0,1.0,87,0.00,,,0.01,,2013-01-15 10:02:00,
2013-01-15 05:12:00,32.0,29.0,30.26,WSW,252,0.0,1.0,87,0.00,,,0.01,,2013-01-15 10:12:00,
2013-01-15 05:22:00,32.0,29.0,30.27,WSW,253,0.0,1.0,88,0.00,,,0.01,,2013-01-15 10:22:00,
2013-01-15 05:32:00,32.0,28.0,30.27,NE,37,0.0,2.0,84,0.00,,,0.01,,2013-01-15 10:32:00,
2013-01-15 05:42:00,32.0,28.0,30.27,NE,37,0.0,2.0,84,0.00,,,0.01,,2013-01-15 10:42:00,
2013-01-15 05:52:00,32.0,27.0,30.27,NE,39,0.0,1.0,83,0.00,,,0.01,,2013-01-15 10:52:00,
2013-01-15 06:03:00,32.0,27.0,30.27,NE,39,0.0,2.0,83,0.00,,,0.01,,2013-01-15 11:03:00,
2013-01-15 06:12:00,32.0,27.0,30.27,NE,39,0.0,2.0,83,0.00,,,0.01,,2013-01-15 11:12:00,
2013-01-15 06:23:00,32.0,27.0,30.26,NE,39,0.0,1.0,82,0.00,,,0.01,,2013-01-15 11:23:00,
2013-01-15 06:33:00,32.0,27.0,30.28,NE,39,0.0,1.0,81,0.00,,,0.01,,2013-01-15 11:33:00,
2013-01-15 06:43:00,32.0,27.0,30.28,NE,39,0.0,1.0,81,0.00,,,0.01,,2013-01-15 11:43:00,
2013-01-15 06:52:00,31.0,26.0,30.29,NE,39,0.0,1.0,83,0.00,,,0.01,,2013-01-15 11:52:00,
2013-01-15 07:03:00,31.0,26.0,30.31,NE,39,0.0,1.0,80,0.00,,,0.01,,2013-01-15 12:03:00,
2013-01-15 07:12:00,31.0,26.0,30.31,NE,39,0.0,1.0,80,0.00,,,0.01,,2013-01-15 12:12:00,
2013-01-15 07:22:00,31.0,26.0,30.32,NE,41,0.0,2.0,80,0.00,,,0.01,,2013-01-15 12:22:00,
2013-01-15 07:33:00,31.0,26.0,30.32,NE,42,0.0,0.0,80,0.00,,,0.01,,2013-01-15 12:33:00,
2013-01-15 07:43:00,31.0,26.0,30.32,NE,42,0.0,0.0,80,0.00,,,0.01,,2013-01-15 12:43:00,
2013-01-15 07:53:00,31.0,26.0,30.32,NE,42,0.0,1.0,80,0.00,,,0.01,,2013-01-15 12:53:00,
2013-01-15 08:03:00,31.0,26.0,30.33,NE,42,0.0,0.0,81,0.00,,,0.01,,2013-01-15 13:03:00,
2013-01-15 08:12:00,31.0,26.0,30.33,NE,42,0.0,0.0,81,0.00,,,0.01,,2013-01-15 13:12:00,
2013-01-15 08:23:00,31.0,26.0,30.34,NE,48,0.0,1.0,81,0.00,,,0.01,,2013-01-15 13:23:00,
2013-01-15 08:33:00,31.0,26.0,30.34,NE,53,0.0,1.0,81,0.00,,,0.01,,2013-01-15 13:33:00,
2013-01-15 08:43:00,31.0,26.0,30.34,NE,53,0.0,1.0,81,0.00,,,0.01,,2013-01-15 13:43:00,
2013-01-15 08:53:00,31.0,26.0,30.35,North,5,0.0,2.0,81,0.00,,,0.01,,2013-01-15 13:53:00,
2013-01-15 09:03:00,31.0,26.0,30.35,North,5,0.0,2.0,81,0.00,,,0.01,,2013-01-15 14:03:00,
2013-01-15 09:13:00,31.0,26.0,30.35,North,5,0.0,2.0,81,0.00,,,0.01,,2013-01-15 14:13:00,
2013-01-15 09:23:00,31.0,25.0,30.35,East,81,0.0,5.0,79,0.00,,,0.01,,2013-01-15 14:23:00,
2013-01-15 09:33:00,32.0,25.0,30.36,NE,45,2.0,6.0,76,0.00,,,0.01,,2013-01-15 14:33:00,
2013-01-15 09:43:00,32.0,25.0,30.36,NE,45,2.0,6.0,76,0.00,,,0.01,,2013-01-15 14:43:00,
2013-01-15 09:53:00,33.0,25.0,30.35,NNE,28,2.0,6.0,73,0.00,,,0.01,,2013-01-15 14:53:00,
2013-01-15 10:03:00,34.0,26.0,30.36,North,9,0.0,3.0,72,0.00,,,0.01,,2013-01-15 15:03:00,
2013-01-15 10:12:00,34.0,26.0,30.36,North,9,0.0,3.0,72,0.00,,,0.01,,2013-01-15 15:12:00,
2013-01-15 10:23:00,34.0,26.0,30.37,East,87,0.0,4.0,72,0.00,,,0.01,,2013-01-15 15:23:00,
2013-01-15 10:33:00,35.0,26.0,30.37,ENE,59,1.0,4.0,70,0.00,,,0.01,,2013-01-15 15:33:00,
2013-01-15 10:43:00,35.0,26.0,30.37,ENE,59,1.0,4.0,70,0.00,,,0.01,,2013-01-15 15:43:00,
2013-01-15 10:53:00,35.0,26.0,30.37,NE,46,2.0,6.0,68,0.00,,,0.01,,2013-01-15 15:53:00,
2013-01-15 11:03:00,35.0,26.0,30.35,NE,40,0.0,4.0,69,0.00,,,0.01,,2013-01-15 16:03:00,
2013-01-15 11:12:00,35.0,26.0,30.35,NE,40,0.0,4.0,69,0.00,,,0.01,,2013-01-15 16:12:00,
2013-01-15 11:23:00,35.0,26.0,30.34,ENE,69,1.0,3.0,69,0.00,,,0.01,,2013-01-15 16:23:00,
2013-01-15 11:33:00,35.0,26.0,30.33,ENE,58,0.0,2.0,70,0.00,,,0.01,,2013-01-15 16:33:00,
2013-01-15 11:43:00,35.0,26.0,30.33,ENE,58,0.0,2.0,70,0.00,,,0.01,,2013-01-15 16:43:00,
2013-01-15 11:53:00,35.0,26.0,30.32,East,86,0.0,1.0,69,0.00,,,0.01,,2013-01-15 16:53:00,
2013-01-15 12:04:00,35.0,26.0,30.33,East,86,0.0,1.0,69,0.00,,,0.01,,2013-01-15 17:04:00,
2013-01-15 12:12:00,35.0,26.0,30.33,East,86,0.0,1.0,69,0.00,,,0.01,,2013-01-15 17:12:00,
2013-01-15 12:23:00,36.0,26.0,30.33,ENE,59,0.0,2.0,68,0.00,,,0.01,,2013-01-15 17:23:00,
2013-01-15 12:33:00,36.0,26.0,30.33,ENE,58,0.0,2.0,68,0.00,,,0.01,,2013-01-15 17:33:00,
2013-01-15 12:43:00,36.0,26.0,30.33,ENE,58,0.0,2.0,68,0.00,,,0.01,,2013-01-15 17:43:00,
2013-01-15 12:53:00,36.0,25.0,30.33,NE,50,0.0,2.0,65,0.00,,,0.01,,2013-01-15 17:53:00,
2013-01-15 13:03:00,36.0,26.0,30.32,East,95,0.0,3.0,66,0.00,,,0.01,,2013-01-15 18:03:00,
2013-01-15 13:13:00,36.0,26.0,30.32,East,95,0.0,3.0,66,0.00,,,0.01,,2013-01-15 18:13:00,
2013-01-15 13:23:00,36.0,26.0,30.32,ESE,104,0.0,2.0,66,0.00,,,0.01,,2013-01-15 18:23:00,
2013-01-15 13:33:00,36.0,26.0,30.32,WNW,295,1.0,4.0,67,0.00,,,0.01,,2013-01-15 18:33:00,
2013-01-15 13:43:00,36.0,26.0,30.32,WNW,295,1.0,4.0,67,0.00,,,0.01,,2013-01-15 18:43:00,
2013-01-15 13:53:00,36.0,26.0,30.32,NE,49,0.0,2.0,66,0.00,,,0.00,,2013-01-15 18:53:00,
2013-01-15 14:03:00,36.0,28.0,30.32,NNE,28,0.0,2.0,71,0.00,,,0.00,,2013-01-15 19:03:00,
2013-01-15 14:13:00,36.0,28.0,30.32,NNE,28,0.0,2.0,71,0.00,,,0.00,,2013-01-15 19:13:00,
2013-01-15 14:23:00,36.0,27.0,30.31,NE,43,0.0,5.0,69,0.00,,,0.00,,2013-01-15 19:23:00,
2013-01-15 14:33:00,36.0,26.0,30.30,ESE,119,0.0,3.0,67,0.00,,,0.00,,2013-01-15 19:33:00,
2013-01-15 14:43:00,36.0,26.0,30.30,ESE,119,0.0,3.0,67,0.00,,,0.00,,2013-01-15 19:43:00,
2013-01-15 14:53:00,36.0,26.0,30.30,ESE,119,0.0,3.0,67,0.00,,,0.00,,2013-01-15 19:53:00,
2013-01-15 15:03:00,36.0,26.0,30.30,NE,38,0.0,1.0,68,0.00,,,0.00,,2013-01-15 20:03:00,
2013-01-15 15:12:00,36.0,26.0,30.30,NE,38,0.0,1.0,68,0.00,,,0.00,,2013-01-15 20:12:00,
2013-01-15 15:23:00,36.0,26.0,30.30,NE,38,0.0,1.0,68,0.00,,,0.00,,2013-01-15 20:23:00,
2013-01-15 15:33:00,36.0,26.0,30.32,NE,52,0.0,3.0,67,0.00,,,0.00,,2013-01-15 20:33:00,
2013-01-15 15:43:00,36.0,26.0,30.32,NE,52,0.0,3.0,67,0.00,,,0.00,,2013-01-15 20:43:00,
2013-01-15 15:53:00,36.0,25.0,30.30,NE,53,0.0,3.0,64,0.00,,,0.00,,2013-01-15 20:53:00,
2013-01-15 16:03:00,36.0,26.0,30.29,NE,53,0.0,0.0,67,0.00,,,0.00,,2013-01-15 21:03:00,
2013-01-15 16:13:00,36.0,26.0,30.29,NE,53,0.0,0.0,67,0.00,,,0.00,,2013-01-15 21:13:00,
2013-01-15 16:23:00,36.0,26.0,30.30,NE,53,0.0,1.0,66,0.00,,,0.00,,2013-01-15 21:23:00,
2013-01-15 16:34:00,36.0,26.0,30.29,ENE,65,0.0,1.0,67,0.00,,,0.00,,2013-01-15 21:34:00,
2013-01-15 16:43:00,36.0,26.0,30.29,ENE,65,0.0,1.0,67,0.00,,,0.00,,2013-01-15 21:43:00,
2013-01-15 16:53:00,35.0,26.0,30.32,ENE,65,0.0,0.0,68,0.00,,,0.00,,2013-01-15 21:53:00,
2013-01-15 17:03:00,35.0,27.0,30.32,ENE,65,0.0,0.0,71,0.00,,,0.00,,2013-01-15 22:03:00,
2013-01-15 17:12:00,35.0,27.0,30.32,ENE,65,0.0,0.0,71,0.00,,,0.00,,2013-01-15 22:12:00,
2013-01-15 17:23:00,34.0,26.0,30.31,ENE,65,0.0,0.0,71,0.00,,,0.00,,2013-01-15 22:23:00,
2013-01-15 17:33:00,34.0,26.0,30.32,ENE,65,0.0,0.0,73,0.00,,,0.00,,2013-01-15 22:33:00,
2013-01-15 17:43:00,34.0,26.0,30.32,ENE,65,0.0,0.0,73,0.00,,,0.00,,2013-01-15 22:43:00,
2013-01-15 17:52:00,33.0,25.0,30.32,ENE,65,0.0,0.0,73,0.00,,,0.00,,2013-01-15 22:52:00,
2013-01-15 18:03:00,33.0,26.0,30.32,ENE,65,0.0,0.0,74,0.00,,,0.00,,2013-01-15 23:03:00,
2013-01-15 18:13:00,33.0,26.0,30.32,ENE,65,0.0,0.0,74,0.00,,,0.00,,2013-01-15 23:13:00,
2013-01-15 18:23:00,33.0,26.0,30.32,ENE,65,0.0,0.0,75,0.00,,,0.00,,2013-01-15 23:23:00,
2013-01-15 18:33:00,32.0,25.0,30.31,ENE,65,0.0,0.0,75,0.00,,,0.00,,2013-01-15 23:33:00,
2013-01-15 18:43:00,32.0,25.0,30.31,ENE,65,0.0,0.0,75,0.00,,,0.00,,2013-01-15 23:43:00,
2013-01-15 18:53:00,32.0,25.0,30.32,ENE,65,0.0,0.0,75,0.00,,,0.00,,2013-01-15 23:53:00,
2013-01-15 19:03:00,31.0,25.0,30.32,ENE,65,0.0,0.0,77,0.00,,,0.00,,2013-01-16 00:03:00,
2013-01-15 19:13:00,31.0,25.0,30.32,ENE,65,0.0,0.0,77,0.00,,,0.00,,2013-01-16 00:13:00,
2013-01-15 19:22:00,31.0,26.0,30.32,ENE,65,0.0,2.0,81,0.00,,,0.00,,2013-01-16 00:22:00,
2013-01-15 19:33:00,31.0,26.0,30.32,ENE,65,0.0,0.0,81,0.00,,,0.00,,2013-01-16 00:33:00,
2013-01-15 19:43:00,31.0,26.0,30.32,ENE,65,0.0,0.0,81,0.00,,,0.00,,2013-01-16 00:43:00,
2013-01-15 19:52:00,31.0,26.0,30.32,ENE,65,0.0,1.0,80,0.00,,,0.00,,2013-01-16 00:52:00,
2013-01-15 20:03:00,31.0,25.0,30.31,ENE,65,0.0,0.0,77,0.00,,,0.00,,2013-01-16 01:03:00,
2013-01-15 20:12:00,31.0,25.0,30.31,ENE,65,0.0,0.0,77,0.00,,,0.00,,2013-01-16 01:12:00,
2013-01-15 20:22:00,31.0,25.0,30.32,ENE,65,0.0,0.0,78,0.00,,,0.00,,2013-01-16 01:22:00,
2013-01-15 20:33:00,31.0,25.0,30.31,ENE,65,0.0,0.0,77,0.00,,,0.00,,2013-01-16 01:33:00,
2013-01-15 20:43:00,31.0,25.0,30.31,ENE,65,0.0,0.0,77,0.00,,,0.00,,2013-01-16 01:43:00,
2013-01-15 20:52:00,31.0,24.0,30.31,ENE,65,0.0,0.0,76,0.00,,,0.00,,2013-01-16 01:52:00,
2013-01-15 21:03:00,31.0,25.0,30.29,ENE,65,0.0,0.0,78,0.00,,,0.00,,2013-01-16 02:03:00,
2013-01-15 21:12:00,31.0,25.0,30.29,ENE,65,0.0,0.0,78,0.00,,,0.00,,2013-01-16 02:12:00,
2013-01-15 21:23:00,31.0,25.0,30.29,ENE,65,0.0,0.0,78,0.00,,,0.00,,2013-01-16 02:23:00,
2013-01-15 21:33:00,31.0,25.0,30.30,ENE,65,0.0,0.0,77,0.00,,,0.00,,2013-01-16 02:33:00,
2013-01-15 21:43:00,31.0,25.0,30.30,ENE,65,0.0,0.0,77,0.00,,,0.00,,2013-01-16 02:43:00,
2013-01-15 21:53:00,31.0,25.0,30.30,ENE,65,0.0,2.0,78,0.00,,,0.00,,2013-01-16 02:53:00,
2013-01-15 22:03:00,31.0,25.0,30.30,ENE,65,0.0,1.0,79,0.00,,,0.00,,2013-01-16 03:03:00,
2013-01-15 22:12:00,31.0,25.0,30.30,ENE,65,0.0,1.0,79,0.00,,,0.00,,2013-01-16 03:12:00,
2013-01-15 22:22:00,31.0,25.0,30.29,ENE,65,0.0,0.0,78,0.00,,,0.00,,2013-01-16 03:22:00,
2013-01-15 22:33:00,31.0,25.0,30.29,East,101,0.0,1.0,78,0.00,,,0.00,,2013-01-16 03:33:00,
2013-01-15 22:43:00,31.0,25.0,30.29,East,101,0.0,1.0,78,0.00,,,0.00,,2013-01-16 03:43:00,
2013-01-15 22:52:00,31.0,26.0,30.29,East,101,0.0,0.0,80,0.00,,,0.00,,2013-01-16 03:52:00,
2013-01-15 23:02:00,31.0,26.0,30.29,East,101,0.0,0.0,81,0.00,,,0.00,,2013-01-16 04:02:00,
2013-01-15 23:12:00,31.0,26.0,30.29,East,101,0.0,0.0,81,0.00,,,0.00,,2013-01-16 04:12:00,
2013-01-15 23:22:00,31.0,25.0,30.30,East,101,0.0,1.0,78,0.00,,,0.00,,2013-01-16 04:22:00,
2013-01-15 23:33:00,31.0,25.0,30.29,East,101,0.0,1.0,77,0.00,,,0.00,,2013-01-16 04:33:00,
2013-01-15 23:42:00,31.0,25.0,30.29,East,101,0.0,1.0,77,0.00,,,0.00,,2013-01-16 04:42:00,
2013-01-15 23:52:00,31.0,25.0,30.28,East,101,0.0,0.0,77,0.00,,,0.00,,2013-01-16 04:52:00,